[[{"header":{"parameterUnit":"m.s-1","parameterCategory":1,"la1":30.2991,"la2":30.254,"lo1":-89.0895,"lo2":-89.0444,"dx":0.0017,"dy":0.0017,"nx":28,"ny":28,"refTime":"2022-11-07T09:00:00:Z","depth":0,"parameterNumber":2,"parameterNumberName":"U-component_of_WINDS"},"data":[0,0,0,0,0,0,0,0,0,0,0,0,0,0,0,0,0,0,0,0,0,0,0,0,0,0,0,0,0,0,0,0,0,0,0,0,0,0,0,0,0,0,0,0,0,0,0,0,0,0,0,0,0,0,0,0,0,0,-1.2997,-1.2998,0,-1.308,-1.3081,-1.3082,-1.3111,-1.311,-1.311,-1.311,-1.3196,-1.3198,-1.3201,0,0,0,0,0,0,0,0,0,0,0,0,0,-1.2866,-1.2868,-1.2997,-1.2998,-1.2999,-1.308,-1.3081,-1.3082,-1.3111,-1.311,-1.311,-1.311,-1.3195,-1.3198,-1.3201,0,0,0,0,0,0,0,0,0,0,0,0,0,-1.2933,-1.2869,-1.2997,-1.3023,-1.3027,-1.3079,-1.3081,-1.3082,-1.3111,-1.311,-1.311,-1.311,-1.3194,-1.3198,-1.3202,-1.3235,0,0,-1.3213,-1.3215,0,0,0,0,0,0,0,0,-1.2929,-1.2938,-1.3018,-1.3022,-1.3025,-1.3084,-1.3066,-1.3133,-1.3111,-1.3079,-1.311,-1.3109,-1.3159,-1.3166,-1.3183,-1.3239,-1.3242,-1.3214,-1.3216,-1.3218,-1.3219,0,0,0,0,0,0,0,-1.2925,-1.2935,-1.303,-1.302,-1.3024,-1.3031,-1.3041,-1.3079,-1.3121,-1.3082,-1.3084,-1.3093,-1.3161,-1.3179,-1.3185,-1.3244,-1.3214,-1.3217,-1.3219,-1.3221,-1.3331,-1.3332,0,0,0,0,0,0,-1.2915,-1.2931,-1.3027,-1.3032,-1.2975,-1.3034,-1.3044,-1.3066,-1.312,-1.3128,-1.3094,-1.3094,-1.3172,-1.318,-1.3188,-1.323,-1.3218,-1.3221,-1.3224,-1.3331,-1.3332,-1.3332,0,0,0,0,0,0,-1.2912,-1.2924,-1.3024,-1.2982,-1.2995,-1.3037,-1.3061,-1.3068,-1.3086,-1.3129,-1.3137,-1.3104,-1.3172,-1.3182,-1.3223,-1.3234,-1.3223,-1.3227,-1.333,-1.3331,-1.3332,-1.3315,0,0,0,0,0,0,-1.2909,-1.2923,-1.2935,-1.2982,-1.2998,-1.3057,-1.3062,-1.307,-1.3092,-1.3094,-1.3141,-1.3149,-1.3173,-1.3217,-1.3227,-1.3239,-1.323,-1.3329,-1.3331,-1.3332,-1.3315,-1.3316,-1.3316,0,0,0,0,0,-1.2904,-1.2928,-1.2936,-1.2947,-1.3014,-1.3058,-1.3066,-1.3093,-1.3093,-1.3106,-1.3134,-1.3147,-1.3231,-1.3221,-1.3232,-1.3246,-1.3329,-1.333,-1.3332,-1.3315,-1.3316,-1.3316,0,0,0,0,0,0,-1.2881,-1.2934,-1.2944,-1.2983,-1.3016,-1.3062,-1.308,-1.3093,-1.3127,-1.3127,-1.316,-1.317,-1.3208,-1.3231,-1.3219,-1.3281,-1.3281,-1.3284,-1.3264,-1.3265,-1.3266,-1.3259,-1.3233,0,0,0,0,0,-1.2881,-1.2911,-1.2956,-1.2987,-1.3002,-1.3038,-1.3058,-1.3076,-1.3111,-1.3125,-1.3156,-1.319,-1.3224,-1.3246,-1.328,-1.3319,-1.3329,-1.3333,-1.3334,-1.3334,-1.3337,-1.3359,-1.3362,-1.3337,-1.3337,-1.3337,0,0,-1.2881,-1.2913,-1.2931,-1.2983,-1.301,-1.3041,-1.305,-1.3082,-1.3106,-1.313,-1.317,-1.3194,-1.3234,-1.3274,-1.3293,-1.3294,-1.3346,-1.3336,-1.3336,-1.3339,-1.3361,-1.3363,-1.3365,-1.3338,-1.3338,-1.3337,0,0,-1.2896,-1.2923,-1.2952,-1.2979,-1.302,-1.3043,-1.305,-1.3095,-1.3112,-1.3152,-1.3171,-1.32,-1.3258,-1.3285,-1.3307,-1.3332,-1.3345,-1.3342,-1.3345,-1.3366,-1.3368,-1.337,-1.3379,-1.3382,-1.3345,-1.3345,-1.3345,0,-1.289,-1.2938,-1.2965,-1.2997,-1.3019,-1.3042,-1.3072,-1.3097,-1.3146,-1.3162,-1.3162,-1.3235,-1.3264,-1.331,-1.3316,-1.3333,-1.3342,-1.3337,-1.3366,-1.3368,-1.337,-1.3379,-1.3382,-1.3344,-1.3344,-1.3345,-1.3345,0,-1.2929,-1.2961,-1.298,-1.3027,-1.3051,-1.3082,-1.3114,-1.3136,-1.3152,-1.3175,-1.3216,-1.3251,-1.3292,-1.3305,-1.3321,-1.3354,-1.3353,-1.3359,-1.336,-1.3371,-1.338,-1.3384,-1.3343,-1.3344,-1.3344,-1.3344,0,0,-1.2933,-1.2994,-1.3,-1.3022,-1.3069,-1.3094,-1.3126,-1.3166,-1.3184,-1.3217,-1.3245,-1.3293,-1.3299,-1.3323,-1.3342,-1.3361,-1.3379,-1.3365,-1.3367,-1.3367,-1.3418,-1.3413,-1.3417,-1.3388,-1.3389,-1.3389,-1.3415,0,-1.2954,-1.3011,-1.3036,-1.3082,-1.3112,-1.3134,-1.3162,-1.3193,-1.3216,-1.3246,-1.3271,-1.3305,-1.331,-1.3325,-1.3345,-1.3373,-1.339,-1.3371,-1.3414,-1.3415,-1.3404,-1.3421,-1.3417,-1.3439,-1.3418,-1.3419,-1.3419,0,-1.2987,-1.302,-1.3068,-1.311,-1.3124,-1.3148,-1.3187,-1.3215,-1.3251,-1.3267,-1.3294,-1.3312,-1.3346,-1.3344,-1.3392,-1.3379,-1.3398,-1.3414,-1.3416,-1.3421,-1.3418,-1.3427,-1.3446,-1.3449,-1.3425,-1.3425,-1.3424,0,-1.2985,-1.3041,-1.3077,-1.3095,-1.3146,-1.3162,-1.3184,-1.322,-1.3242,-1.3276,-1.3291,-1.3328,-1.3349,-1.3378,-1.3406,-1.3402,-1.3451,-1.3452,-1.3465,-1.3464,-1.3475,-1.3474,-1.3497,-1.3487,-1.3487,-1.3487,-1.3486,0,-1.3006,-1.3034,-1.3077,-1.3099,-1.3132,-1.3161,-1.3193,-1.3217,-1.3248,-1.3276,-1.3298,-1.3323,-1.3359,-1.3389,-1.3411,-1.3447,-1.3456,-1.347,-1.3476,-1.3468,-1.3466,-1.3481,-1.348,-1.3487,-1.3487,-1.3487,-1.3487,0,-1.3009,-1.3039,-1.3079,-1.3124,-1.3136,-1.3158,-1.3197,-1.3219,-1.3243,-1.3277,-1.3287,-1.3325,-1.3361,-1.3392,-1.344,-1.3455,-1.3493,-1.35,-1.348,-1.3483,-1.3495,-1.3494,-1.3529,-1.3535,-1.352,-1.3521,-1.3521,0,-1.3021,-1.3043,-1.309,-1.311,-1.3131,-1.3163,-1.3185,-1.3215,-1.3238,-1.3281,-1.3299,-1.3336,-1.3368,-1.3426,-1.3458,-1.3495,-1.3502,-1.3512,-1.3508,-1.35,-1.3503,-1.3501,-1.3504,-1.3513,-1.3513,-1.3513,-1.3513,0,-1.3038,-1.3052,-1.3083,-1.312,-1.3146,-1.3177,-1.3208,-1.3223,-1.3258,-1.3283,-1.332,-1.3345,-1.3394,-1.3431,-1.3472,-1.3495,-1.351,-1.3514,-1.3519,-1.3511,-1.3499,-1.3506,-1.3481,-1.3513,-1.3513,-1.3513,-1.3513,-1.3513,-1.3047,-1.3067,-1.3103,-1.3138,-1.3164,-1.3193,-1.3216,-1.3243,-1.3274,-1.3316,-1.3332,-1.337,-1.3406,-1.3461,-1.3485,-1.3515,-1.3517,-1.3525,-1.3527,-1.3528,-1.3527,-1.3494,-1.3523,-1.3523,-1.3523,-1.3523,-1.3523,0,-1.3065,-1.3089,-1.3121,-1.3163,-1.319,-1.3201,-1.3236,-1.3258,-1.3291,-1.3324,-1.3354,-1.3397,-1.3434,-1.3468,-1.3506,-1.3524,-1.3532,-1.3533,-1.3532,-1.3538,-1.3523,-1.3515,-1.3526,-1.3526,-1.3526,-1.3526,-1.3526,-1.3526,-1.3078,-1.3114,-1.3132,-1.3181,-1.3205,-1.3242,-1.3261,-1.3288,-1.3314,-1.336,-1.339,-1.3412,-1.3446,-1.3487,-1.3521,-1.353,-1.3543,-1.3543,-1.3554,-1.3539,-1.3539,-1.3538,-1.353,-1.3545,-1.3545,-1.3566,-1.3566,-1.3566]},{"header":{"parameterUnit":"m.s-1","parameterCategory":1,"la1":30.2991,"la2":30.254,"lo1":-89.0895,"lo2":-89.0444,"dx":0.0017,"dy":0.0017,"nx":28,"ny":28,"refTime":"2022-11-07T09:00:00:Z","depth":0,"parameterNumber":3,"parameterNumberName":"V-component_of_WINDS"},"data":[0,0,0,0,0,0,0,0,0,0,0,0,0,0,0,0,0,0,0,0,0,0,0,0,0,0,0,0,0,0,0,0,0,0,0,0,0,0,0,0,0,0,0,0,0,0,0,0,0,0,0,0,0,0,0,0,0,0,-2.6478,-2.6478,0,-2.6511,-2.6511,-2.6511,-2.6486,-2.6485,-2.6484,-2.6483,-2.6513,-2.6515,-2.6517,0,0,0,0,0,0,0,0,0,0,0,0,0,-2.639,-2.6392,-2.6478,-2.6478,-2.6479,-2.6511,-2.6511,-2.6512,-2.6486,-2.6485,-2.6484,-2.6483,-2.6513,-2.6515,-2.6517,0,0,0,0,0,0,0,0,0,0,0,0,0,-2.6426,-2.6393,-2.6478,-2.647,-2.647,-2.6511,-2.6511,-2.6512,-2.6487,-2.6485,-2.6484,-2.6482,-2.6512,-2.6514,-2.6517,-2.6566,0,0,-2.6525,-2.6527,0,0,0,0,0,0,0,0,-2.6424,-2.643,-2.6471,-2.6471,-2.647,-2.6493,-2.6491,-2.653,-2.6487,-2.648,-2.6483,-2.6481,-2.6507,-2.651,-2.652,-2.6568,-2.6569,-2.6526,-2.6527,-2.6528,-2.6529,0,0,0,0,0,0,0,-2.6422,-2.6428,-2.6491,-2.6471,-2.6471,-2.6464,-2.6467,-2.6498,-2.6502,-2.6481,-2.6479,-2.6483,-2.6507,-2.6517,-2.6521,-2.6569,-2.6526,-2.6528,-2.653,-2.6531,-2.666,-2.6661,0,0,0,0,0,0,-2.6421,-2.6426,-2.649,-2.6492,-2.6443,-2.6467,-2.6471,-2.6487,-2.6502,-2.6503,-2.6485,-2.6482,-2.6514,-2.6517,-2.6521,-2.6581,-2.6528,-2.6531,-2.6532,-2.6658,-2.666,-2.6662,0,0,0,0,0,0,-2.6419,-2.6427,-2.6488,-2.6459,-2.6466,-2.647,-2.6489,-2.6489,-2.6499,-2.6505,-2.6505,-2.6495,-2.6513,-2.6518,-2.6556,-2.6581,-2.6532,-2.6535,-2.6656,-2.6658,-2.6661,-2.6699,0,0,0,0,0,0,-2.6416,-2.6426,-2.6445,-2.6459,-2.6468,-2.6523,-2.6491,-2.6491,-2.6504,-2.6501,-2.6515,-2.6515,-2.6512,-2.6552,-2.6558,-2.6584,-2.6537,-2.6653,-2.6657,-2.666,-2.6696,-2.6703,-2.6709,0,0,0,0,0,-2.6413,-2.6454,-2.6446,-2.6454,-2.6492,-2.6525,-2.6529,-2.6525,-2.6507,-2.6526,-2.653,-2.6515,-2.6577,-2.6556,-2.6563,-2.659,-2.6652,-2.6656,-2.666,-2.6693,-2.6701,-2.6709,0,0,0,0,0,0,-2.6441,-2.6455,-2.6447,-2.6494,-2.6508,-2.652,-2.6544,-2.6534,-2.6554,-2.655,-2.6543,-2.6546,-2.6586,-2.6592,-2.6568,-2.6639,-2.6611,-2.6617,-2.6634,-2.6642,-2.6649,-2.6647,-2.6539,0,0,0,0,0,-2.6453,-2.6479,-2.649,-2.6529,-2.6537,-2.654,-2.6554,-2.655,-2.6564,-2.6569,-2.6576,-2.659,-2.6613,-2.6628,-2.6649,-2.6696,-2.6699,-2.6718,-2.6725,-2.673,-2.6735,-2.6762,-2.6771,-2.6675,-2.6675,-2.6675,0,0,-2.6476,-2.6488,-2.6504,-2.6535,-2.6546,-2.6573,-2.6545,-2.6574,-2.6594,-2.6573,-2.6611,-2.6616,-2.6631,-2.6674,-2.6693,-2.668,-2.6763,-2.6736,-2.674,-2.6742,-2.6767,-2.6776,-2.6784,-2.6678,-2.6678,-2.6677,0,0,-2.6534,-2.6545,-2.658,-2.6592,-2.661,-2.6611,-2.662,-2.6634,-2.6637,-2.6674,-2.666,-2.6683,-2.6722,-2.6733,-2.6744,-2.6808,-2.6795,-2.6814,-2.6849,-2.6875,-2.6883,-2.6889,-2.6913,-2.6921,-2.6819,-2.682,-2.682,0,-2.6561,-2.6602,-2.6599,-2.663,-2.6644,-2.6628,-2.6664,-2.6675,-2.6698,-2.6707,-2.6692,-2.6742,-2.6751,-2.6797,-2.6813,-2.6822,-2.6831,-2.6813,-2.6882,-2.6889,-2.6895,-2.6917,-2.6926,-2.6822,-2.6822,-2.6821,-2.6821,0,-2.6635,-2.6664,-2.669,-2.6715,-2.6731,-2.6764,-2.6765,-2.6782,-2.6777,-2.678,-2.6818,-2.6828,-2.6852,-2.6862,-2.6856,-2.6908,-2.6899,-2.6883,-2.6856,-2.6907,-2.6927,-2.6936,-2.6825,-2.6824,-2.6824,-2.6823,0,0,-2.671,-2.6734,-2.6744,-2.6755,-2.6774,-2.6796,-2.6828,-2.6852,-2.6868,-2.6884,-2.6911,-2.6945,-2.6931,-2.6943,-2.6939,-2.6961,-2.7012,-2.6942,-2.6943,-2.6956,-2.707,-2.7083,-2.7093,-2.7004,-2.7005,-2.7007,-2.7069,0,-2.6769,-2.6827,-2.6825,-2.6879,-2.6905,-2.6892,-2.692,-2.6934,-2.6938,-2.696,-2.6963,-2.6989,-2.6967,-2.6975,-2.6997,-2.7001,-2.7035,-2.6996,-2.7028,-2.7029,-2.7026,-2.7103,-2.7116,-2.7175,-2.7077,-2.7079,-2.708,0,-2.6846,-2.6867,-2.6924,-2.694,-2.6951,-2.6977,-2.7,-2.7022,-2.7037,-2.7038,-2.7053,-2.7045,-2.7077,-2.7049,-2.7093,-2.7067,-2.708,-2.7084,-2.7086,-2.7089,-2.7058,-2.7109,-2.7194,-2.7203,-2.7092,-2.7091,-2.709,0,-2.6896,-2.6939,-2.6979,-2.6989,-2.7008,-2.7027,-2.7035,-2.705,-2.7065,-2.7085,-2.7095,-2.7117,-2.713,-2.7147,-2.7145,-2.7125,-2.719,-2.7162,-2.7192,-2.7192,-2.7207,-2.7206,-2.7295,-2.7214,-2.7214,-2.7214,-2.7213,0,-2.6963,-2.6998,-2.7002,-2.7026,-2.7065,-2.7063,-2.7101,-2.7108,-2.7121,-2.7146,-2.7135,-2.7158,-2.7154,-2.7178,-2.7176,-2.7214,-2.7219,-2.7221,-2.722,-2.7222,-2.7222,-2.7231,-2.7227,-2.7216,-2.7215,-2.7215,-2.7215,0,-2.7025,-2.7029,-2.7072,-2.7088,-2.7093,-2.7121,-2.7134,-2.7157,-2.716,-2.7192,-2.7199,-2.7204,-2.7231,-2.7232,-2.7262,-2.7261,-2.7307,-2.7301,-2.7302,-2.7301,-2.7332,-2.7329,-2.743,-2.7444,-2.7353,-2.7354,-2.7355,0,-2.7068,-2.7095,-2.7115,-2.7132,-2.7142,-2.7169,-2.7185,-2.7184,-2.7201,-2.7222,-2.7242,-2.7269,-2.729,-2.7333,-2.7339,-2.7362,-2.7358,-2.7391,-2.7361,-2.7363,-2.7359,-2.7358,-2.7361,-2.7397,-2.7398,-2.7399,-2.74,0,-2.7143,-2.7144,-2.7169,-2.7195,-2.7215,-2.7234,-2.7252,-2.7267,-2.7267,-2.7287,-2.7315,-2.7332,-2.7364,-2.7391,-2.7414,-2.7421,-2.7411,-2.741,-2.7418,-2.7421,-2.7421,-2.7422,-2.7319,-2.7407,-2.7406,-2.7406,-2.7406,-2.7405,-2.7197,-2.7221,-2.724,-2.7268,-2.7282,-2.7299,-2.7322,-2.7329,-2.7354,-2.7381,-2.7378,-2.741,-2.7426,-2.7456,-2.7466,-2.749,-2.7478,-2.749,-2.7493,-2.7497,-2.7501,-2.7417,-2.7494,-2.7494,-2.7494,-2.7494,-2.7494,0,-2.7273,-2.7284,-2.731,-2.7337,-2.7359,-2.7349,-2.7369,-2.7388,-2.7417,-2.7433,-2.7455,-2.7488,-2.7514,-2.7522,-2.7547,-2.7565,-2.7561,-2.7572,-2.7571,-2.7573,-2.7509,-2.75,-2.7575,-2.7575,-2.7575,-2.7575,-2.7575,-2.7575,-2.7314,-2.7355,-2.7359,-2.7406,-2.7417,-2.745,-2.7462,-2.7478,-2.7492,-2.753,-2.7552,-2.7558,-2.7571,-2.7597,-2.762,-2.7622,-2.7632,-2.7645,-2.7645,-2.7585,-2.7577,-2.7569,-2.7561,-2.7647,-2.7647,-2.7707,-2.7707,-2.7708]}]]